Weather History for Safford, AZ

Change the Weather History Date:

Friday, July 4, 2014

  Actual Average Record
Temperature  
Mean Temperature 84 °F -  
Max Temperature 96 °F 100 °F 109 °F (2003)
Min Temperature 71 °F 65 °F 50 °F (1956)
Cooling Degree Days 20    
Growing Degree Days 34 (Base 50)    
Moisture  
Dew Point 57 °F    
Average Humidity 45    
Maximum Humidity 81    
Minimum Humidity 21    
Precipitation  
Precipitation 0.06 in - - ()
Sea Level Pressure  
Sea Level Pressure 29.95 in    
Wind  
Wind Speed 8 mph (WSW)    
Max Wind Speed 21 mph    
Max Gust Speed 25 mph    
Visibility 9 miles    
Events Rain , Thunderstorm    
Averages and records for this station are not official NWS values.
T = Trace of Precipitation, MM = Missing Value Source: NWS Daily Summary

Daily Weather History Graph

Daily Weather History Graph

Search for Another Location

Airport:

Trip Planner

Search our weather history database for the weather conditions in past years. The results will help you decide how hot, cold, wet, or windy it might be!

Date:

Astronomy

Jul. 04, 2014 Rise Set
Actual Time 5:15 AM MST 7:30 PM MST
Civil Twilight 4:46 AM MST 7:58 PM MST
Nautical Twilight 4:11 AM MST 8:33 PM MST
Astronomical Twilight 3:34 AM MST 9:11 PM MST
Moon 11:51 AM MST (7/4) 11:49 PM MST (7/4)
Length of Visible Light 15h 12m
Length of Day
14h 15m
Waxing Crescent, 43% of the Moon is Illuminated
Jul 4
Waxing Crescent
Jul 5
First Quarter
Jul 12
Full
Jul 18
Last Quarter
Jul 26
New

Hourly Weather History & Observations

Time (MST) Temp. Heat Index Dew Point Humidity Pressure Visibility Wind Dir Wind Speed Gust Speed Precip Events Conditions
12:51 AM 78.1 °F - 55.9 °F 46% 29.92 in 10.0 mi SW 8.1 mph - N/A   Partly Cloudy
1:51 AM 77.0 °F - 57.0 °F 50% 29.93 in 10.0 mi NE 4.6 mph - N/A   Clear
2:51 AM 75.9 °F - 57.0 °F 52% 29.93 in 10.0 mi ESE 4.6 mph - N/A   Clear
3:51 AM 73.9 °F - 57.0 °F 55% 29.93 in 10.0 mi ENE 3.5 mph - N/A   Clear
4:51 AM 73.9 °F - 55.0 °F 52% 29.95 in 10.0 mi Calm Calm - N/A   Clear
5:51 AM 75.0 °F - 55.9 °F 51% 29.96 in 10.0 mi Calm Calm - N/A   Clear
6:51 AM 80.1 °F 80.2 °F 55.9 °F 43% 29.96 in 10.0 mi Calm Calm - N/A   Clear
7:51 AM 78.1 °F - 60.1 °F 54% 29.99 in 10.0 mi South 11.5 mph - N/A   Clear
8:51 AM 82.0 °F 81.7 °F 57.0 °F 42% 29.97 in 10.0 mi South 9.2 mph - N/A   Clear
9:51 AM 86.0 °F 84.2 °F 54.0 °F 33% 29.96 in 10.0 mi South 5.8 mph - N/A   Clear
10:51 AM 90.0 °F - 52.0 °F 27% 29.95 in 10.0 mi South 9.2 mph - N/A   Partly Cloudy
11:51 AM 91.9 °F 89.5 °F 53.1 °F 27% 29.91 in 10.0 mi Variable 5.8 mph - N/A   Clear
12:51 PM 95.0 °F - 52.0 °F 23% 29.88 in 10.0 mi SSE 11.5 mph - N/A   Clear
1:51 PM 96.1 °F - 50.0 °F 21% 29.85 in 10.0 mi Variable 5.8 mph - N/A   Clear
2:51 PM 93.9 °F 91.4 °F 53.1 °F 25% 29.83 in 10.0 mi WNW 16.1 mph - N/A   Clear
3:51 PM 91.9 °F - 48.9 °F 23% 29.84 in 10.0 mi West 20.7 mph - N/A   Clear
4:38 PM 90.0 °F - 50.0 °F 25% 30.02 in 10.0 mi NW 10.4 mph - N/A Thunderstorm Clear
4:51 PM 90.0 °F - 50.0 °F 25% 29.86 in 10.0 mi WNW 16.1 mph - N/A Thunderstorm Partly Cloudy
5:08 PM 84.9 °F 83.9 °F 57.0 °F 38% 30.03 in 2.5 mi West 10.4 mph - 0.00 in Rain Heavy Rain
5:11 PM 82.0 °F 82.7 °F 61.0 °F 49% 30.03 in 1.8 mi WNW 13.8 mph - 0.06 in Rain , Thunderstorm Heavy Thunderstorms and Rain
5:17 PM 81.0 °F 81.7 °F 61.0 °F 50% 30.02 in 3.0 mi NNW 13.8 mph - 0.06 in Rain , Thunderstorm Light Thunderstorms and Rain
5:31 PM 82.0 °F 83.0 °F 62.1 °F 51% 30.01 in 10.0 mi NNW 13.8 mph - 0.06 in Thunderstorm Mostly Cloudy
5:40 PM 82.9 °F 83.7 °F 62.1 °F 49% 30.01 in 10.0 mi NNW 11.5 mph - 0.06 in   Scattered Clouds
5:51 PM 82.9 °F 84.0 °F 63.0 °F 51% 29.87 in 10.0 mi North 4.6 mph - 0.06 in   Partly Cloudy
6:51 PM 82.0 °F 81.7 °F 57.0 °F 42% 29.94 in 10.0 mi ESE 16.1 mph 25.3 mph N/A   Overcast
7:51 PM 77.0 °F - 62.1 °F 60% 29.98 in 10.0 mi South 17.3 mph - N/A   Overcast
8:51 PM 75.9 °F - 63.0 °F 64% 29.99 in 10.0 mi East 10.4 mph - N/A   Mostly Cloudy
9:51 PM 73.9 °F - 66.9 °F 79% 29.99 in 10.0 mi SSE 4.6 mph - 0.00 in Rain Light Rain
10:51 PM 73.0 °F - 64.9 °F 76% 30.00 in 10.0 mi West 8.1 mph - 0.00 in Rain Light Rain
11:51 PM 71.1 °F - 64.9 °F 81% 29.99 in 10.0 mi WNW 10.4 mph - 0.00 in   Scattered Clouds